Westminster, MD

12:09 PM EST on November 12, 2019 (GMT -0500)
Carroll County Regional-Poage

Weather History for KDMW - October, 2019

Change the Weather History Date:

Monday, October 21, 2019

  Actual Average (KTHV) Record (KTHV)
Temperature  
Mean Temperature 62 °F -  
Max Temperature 71 °F 0 °F 80 °F (2007)
Min Temperature 53 °F - 30 °F (2008)
Degree Days  
Heating Degree Days 3    
Growing Degree Days 12 (Base 50)    
Moisture  
Dew Point 51 °F    
Average Humidity 78    
Maximum Humidity 94    
Minimum Humidity 50    
Precipitation  
Precipitation 0.00 in - - ()
Sea Level Pressure  
Sea Level Pressure 30.06 in    
Wind  
Wind Speed 5 mph (NE)    
Max Wind Speed 12 mph    
Max Gust Speed -    
Visibility 10 miles    
Events      
Averages and records for this station are not official NWS values.
T = Trace of Precipitation, MM = Missing Value Source: NWS Daily Summary

Daily Weather History Graph

Daily Weather History Graph

Search for Another Location

Airport or City:

Astronomy

Oct. 21, 2019 Rise Set
Actual Time 7:24 AM EDT 6:20 PM EDT
Civil Twilight 6:56 AM EDT 6:47 PM EDT
Nautical Twilight 6:25 AM EDT 7:19 PM EDT
Astronomical Twilight 5:54 AM EDT 7:50 PM EDT
Moon No Moon Rise 2:39 PM EDT (10/21)
Length of Visible Light 11h 51m
Length of Day
10h 56m
Waning Gibbous, 48% of the Moon is Illuminated
Oct 21
Waning Gibbous
Oct 27
New
Nov 4
First Quarter
Nov 12
Full
Nov 19
Last Quarter

Hourly Weather History & Observations

Time (EDT) Temp. Dew Point Humidity Pressure Visibility Wind Dir Wind Speed Gust Speed Precip Events Conditions
12:00 AM 53.6 °F 51.8 °F 94% 29.99 in 4.0 mi North 4.6 mph - N/A   Overcast
12:20 AM 53.6 °F 51.8 °F 94% 29.98 in 3.0 mi North 4.6 mph - N/A   Overcast
12:40 AM 53.6 °F 51.8 °F 94% 29.99 in 4.0 mi North 9.2 mph - N/A   Overcast
1:20 AM 53.6 °F 51.8 °F 94% 30.01 in 5.0 mi North 4.6 mph - N/A   Overcast
1:40 AM 53.6 °F 51.8 °F 94% 30.01 in 5.0 mi North 6.9 mph - N/A   Overcast
2:00 AM 53.6 °F 51.8 °F 94% 30.01 in 7.0 mi North 6.9 mph - N/A   Overcast
2:20 AM 53.6 °F 51.8 °F 94% 30.01 in 7.0 mi North 9.2 mph - N/A   Overcast
2:40 AM 53.6 °F 51.8 °F 94% 30.01 in 10.0 mi North 4.6 mph - N/A   Overcast
3:20 AM 53.6 °F 51.8 °F 94% 30.01 in 10.0 mi North 9.2 mph - N/A   Overcast
3:40 AM 53.6 °F 51.8 °F 94% 30.01 in 10.0 mi North 4.6 mph - N/A   Overcast
4:00 AM 53.6 °F 51.8 °F 94% 30.02 in 10.0 mi North 5.8 mph - N/A   Overcast
4:20 AM 53.6 °F 51.8 °F 94% 30.03 in 10.0 mi North 4.6 mph - N/A   Overcast
4:40 AM 53.6 °F 51.8 °F 94% 30.03 in 10.0 mi North 5.8 mph - N/A   Overcast
5:00 AM 53.6 °F 51.8 °F 94% 30.03 in 10.0 mi NNE 3.5 mph - N/A   Overcast
5:20 AM 53.6 °F 51.8 °F 94% 30.04 in 10.0 mi NNE 6.9 mph - N/A   Overcast
5:40 AM 53.6 °F 51.8 °F 94% 30.04 in 10.0 mi NNE 5.8 mph - N/A   Overcast
6:00 AM 53.6 °F 51.8 °F 94% 30.04 in 10.0 mi North 8.1 mph - N/A   Overcast
6:20 AM 53.6 °F 50.0 °F 88% 30.04 in 10.0 mi NE 4.6 mph - N/A   Overcast
6:40 AM 53.6 °F 50.0 °F 88% 30.05 in 10.0 mi North 3.5 mph - N/A   Overcast
7:00 AM 53.6 °F 50.0 °F 88% 30.06 in 10.0 mi North 6.9 mph - N/A   Overcast
7:20 AM 53.6 °F 50.0 °F 88% 30.06 in 10.0 mi North 4.6 mph - N/A   Overcast
7:40 AM 53.6 °F 50.0 °F 88% 30.06 in 10.0 mi Calm Calm - N/A   Overcast
8:00 AM 53.6 °F 50.0 °F 88% 30.07 in 10.0 mi Calm Calm - N/A   Overcast
8:20 AM 53.6 °F 50.0 °F 88% 30.08 in 10.0 mi North 3.5 mph - N/A   Overcast
8:40 AM 53.6 °F 50.0 °F 88% 30.09 in 10.0 mi NE 4.6 mph - N/A   Overcast
9:00 AM 53.6 °F 50.0 °F 88% 30.10 in 10.0 mi NE 4.6 mph - N/A   Overcast
9:20 AM 53.6 °F 50.0 °F 88% 30.10 in 10.0 mi NE 5.8 mph - N/A   Overcast
9:40 AM 53.6 °F 50.0 °F 88% 30.11 in 10.0 mi NE 4.6 mph - N/A   Overcast
10:00 AM 53.6 °F 50.0 °F 88% 30.12 in 10.0 mi North 3.5 mph - N/A   Overcast
10:20 AM 53.6 °F 50.0 °F 88% 30.12 in 10.0 mi North 3.5 mph - N/A   Overcast
10:40 AM 55.4 °F 50.0 °F 82% 30.12 in 10.0 mi Calm Calm - N/A   Mostly Cloudy
11:00 AM 57.2 °F 50.0 °F 77% 30.11 in 10.0 mi East 4.6 mph - N/A   Scattered Clouds
11:20 AM 57.2 °F 50.0 °F 77% 30.11 in 10.0 mi ENE 3.5 mph - N/A   Scattered Clouds
11:40 AM 57.2 °F 50.0 °F 77% 30.10 in 10.0 mi Calm Calm - N/A   Clear
12:00 PM 59.0 °F 51.8 °F 77% 30.09 in 10.0 mi NE 5.8 mph - N/A   Clear
12:20 PM 59.0 °F 51.8 °F 77% 30.10 in 10.0 mi ENE 4.6 mph - N/A   Clear
12:40 PM 60.8 °F 50.0 °F 68% 30.09 in 10.0 mi Calm Calm - N/A   Clear
1:20 PM 62.6 °F 51.8 °F 68% 30.08 in 10.0 mi Calm Calm - N/A   Clear
1:40 PM 64.4 °F 50.0 °F 59% 30.07 in 10.0 mi Calm Calm - N/A   Clear
2:00 PM 64.4 °F 51.8 °F 64% 30.07 in 10.0 mi Calm Calm - N/A   Clear
2:20 PM 64.4 °F 51.8 °F 64% 30.06 in 10.0 mi Calm Calm - N/A   Clear
2:40 PM 66.2 °F 51.8 °F 60% 30.05 in 10.0 mi Calm Calm - N/A   Clear
3:00 PM 66.2 °F 51.8 °F 60% 30.05 in 10.0 mi Calm Calm - N/A   Clear
3:20 PM 68.0 °F 51.8 °F 56% 30.04 in 10.0 mi Calm Calm - N/A   Clear
3:40 PM 68.0 °F 51.8 °F 56% 30.04 in 10.0 mi Calm Calm - N/A   Clear
4:00 PM 69.8 °F 51.8 °F 53% 30.05 in 10.0 mi Calm Calm - N/A   Clear
4:20 PM 71.6 °F 51.8 °F 50% 30.04 in 10.0 mi Calm Calm - N/A   Clear
4:40 PM 71.6 °F 51.8 °F 50% 30.05 in 10.0 mi South 4.6 mph - N/A   Clear
5:00 PM 71.6 °F 51.8 °F 50% 30.04 in 10.0 mi SSE 5.8 mph - N/A   Clear
5:20 PM 69.8 °F 51.8 °F 53% 30.03 in 10.0 mi SSE 4.6 mph - N/A   Clear
5:40 PM 69.8 °F 51.8 °F 53% 30.05 in 10.0 mi SSE 4.6 mph - N/A   Clear
6:00 PM 66.2 °F 51.8 °F 60% 30.05 in 10.0 mi SE 3.5 mph - N/A   Clear
6:20 PM 64.4 °F 51.8 °F 64% 30.05 in 10.0 mi Calm Calm - N/A   Clear
6:40 PM 62.6 °F 51.8 °F 68% 30.06 in 10.0 mi Calm Calm - N/A   Clear
7:00 PM 62.6 °F 51.8 °F 68% 30.06 in 10.0 mi ESE 5.8 mph - N/A   Clear
7:20 PM 60.8 °F 51.8 °F 72% 30.06 in 10.0 mi SE 6.9 mph - N/A   Clear
7:40 PM 60.8 °F 51.8 °F 72% 30.07 in 10.0 mi SE 4.6 mph - N/A   Clear
8:00 PM 60.8 °F 51.8 °F 72% 30.07 in 10.0 mi SE 4.6 mph - N/A   Clear
8:20 PM 59.0 °F 51.8 °F 77% 30.06 in 10.0 mi SE 3.5 mph - N/A   Clear
8:40 PM 57.2 °F 51.8 °F 82% 30.07 in 10.0 mi Calm Calm - N/A   Clear
9:00 PM 57.2 °F 51.8 °F 82% 30.07 in 10.0 mi Calm Calm - N/A   Clear
9:20 PM 57.2 °F 51.8 °F 82% 30.07 in 10.0 mi SE 4.6 mph - N/A   Clear
9:40 PM 57.2 °F 51.8 °F 82% 30.08 in 10.0 mi North - - N/A   Clear
10:20 PM 60.8 °F 51.8 °F 72% 30.07 in 10.0 mi SSE 6.9 mph - N/A   Clear
10:40 PM 60.8 °F 51.8 °F 72% 30.09 in 10.0 mi South 8.1 mph - N/A   Mostly Cloudy
11:00 PM 60.8 °F 51.8 °F 72% 30.08 in 10.0 mi SSE 10.4 mph - N/A   Overcast
11:20 PM 59.0 °F 53.6 °F 82% 30.06 in 10.0 mi SE 11.5 mph - N/A   Overcast
11:40 PM 59.0 °F 53.6 °F 82% 30.05 in 10.0 mi SSE 9.2 mph - N/A   Overcast